Other Surface Observations
Issued by NWS

Home | Current Version | Previous Version | Text Only | Print | Product List | Glossary On
Versions: 1 2 3 4 5 6 7 8 9 10 11 12 13 14 15 16 17 18 19 20 21 22 23 24 25 26 27 28 29 30 31 32 33 34 35 36 37 38 39 40 41 42 43 44 45 46 47 48 49 50
000
SXUS52 KTAE 292305
OSOTAE
OSOTAE
North Florida/South Alabama/Southwest Georgia Weather Roundup
National Weather Service Tallahassee Florida
600 PM EST THU JAN 29 2015

Note: "fair" indicates few or no clouds below 12,000 feet with no
significant weather and/or obstructions to visibility.

!FLZ017-115-028-034-025-300000
...North Florida...

CITY           SKY/WX    TMP DP  RH WIND       PRES   REMARKS
TALLAHASSEE    PTCLDY    61  30  31 S3        30.24S
APALACHICOLA   CLEAR     60  45  57 S3        30.26F
PERRY          CLEAR     58  45  60 SW5       30.26S
CROSS CITY       N/A     61  42  49 W7        30.25R
JACKSONVILLE   MOCLDY    59  49  69 SE9       30.23R
$$

!FLZ112-006-005-002-011-300000
...Florida Panhandle...

CITY           SKY/WX    TMP DP  RH WIND       PRES   REMARKS
MARIANNA       CLEAR     62  49  62 SW13      30.21S
BONIFAY        FAIR      61  50  67 SW8       30.22S
PANAMA CITY NW FAIR      58  50  75 SE7       30.23S
TYNDALL AFB    CLEAR     58  49  72 S9        30.25F
TYND DRONE APT FAIR      58  50  75 MISG      30.23F
DE FUNIAK SPR  FAIR      61  51  70 S7        30.21S
EGLIN AFB      MOCLDY    63  55  76 S8        30.21F
DESTIN         CLEAR     65  54  67 VRB7      30.21F
HURLBURT       CLEAR     64  53  68 S7        30.19F
CRESTVIEW      CLEAR     63  52  67 S7        30.22S
PENSACOLA      CLEAR     63  53  70 S10       30.20F
$$

!ALZ063-066-300000
...South Alabama...

CITY           SKY/WX    TMP DP  RH WIND       PRES   REMARKS
DOTHAN         CLEAR     62  48  60 SW13      30.22S
OZARK CAIRNS   CLEAR     62  49  61 S9        30.18F
FT RUCKER HELI CLEAR     63  49  60 S10       30.17F
RUCKER HELI 3  FAIR      62  51  65 S9G16     30.20F
RUCKER HELI 2  FAIR      62  49  62 S8        30.18S
FLORALA APT    CLEAR     63  50  62 S9        30.20F
ANDALUSIA      CLEAR     68  49  50 SW5       30.17F
TROY           CLEAR     65  48  54 S9        30.16F
EUFALA         FAIR      63  42  46 S6        30.15F
MOBILE         MOCLDY    64  54  69 S13       30.19S
$$

!GAZ120>161-300000
...Southwest and South Central Georgia...

CITY           SKY/WX    TMP DP  RH WIND       PRES   REMARKS
THOMASVILLE    FAIR      61  32  33 SW6       30.23S
BAINBRIDGE     CLEAR     63  45  51 S5        30.21F
MOODY AFB      CLEAR     61  31  31 SW6       30.21S
VALDOSTA       CLEAR     59  34  39 CALM      30.22S
MOULTRIE       PTCLDY    61  36  39 SW3       30.23R
BLAKELY        CLEAR     64  45  48 SW6       30.20S
ALBANY         CLEAR     58  35  42 SW3       30.22F HAZE
TIFTON         FAIR      57  30  35 S5        30.21S
FITZGERALD     FAIR      58  30  34 S6        30.22F
CORDELE        FAIR      60  31  33 SW7       30.20S
AMERICUS       FAIR      57  32  38 S9        30.19F
HOMERVILLE     FAIR      61  41  48 SW3       30.22S
$$

!GMZ750-755-770-775-300000
...Coastal and Buoy Obs...

STATION/POSITION TIME  TEMP    WIND        PRES    VSBY  WAVE
                       AIR SEA DIR/SP/G                  HT/PER
                 (UTC) (F)     (DEG/KT/KT) (MB)    (MI)  (FT/S)
KEATON BEACH     2300   55     270/  4/  5 1024.8R
CEDAR KEY        2200   61     260/  6/  7 1024.6R
C TOWER          2300   59     220/  2/  3 1024.7S
APALACHICOLA BUO 2300   63 68  180/  4/  6 1024.9R         2/ 5
PANAMA CITY BUOY NOT AVBL
MOBILE BUOY      2247   68 69  210/  8/ 10 1023.6F         2/ 5
ORANGE BCH AL BU 2300   65 63  180/ 10/ 12 1022.2F         2/ 5
$$



USA.gov is the U.S. government's official web portal to all federal, state and local government web resources and services.